Theta_e
298 298 297 298 298 298 299 300 302 304 304 305 307 308 307 307 306 304 303 302 302 303
297 297 297 298 298 299 300 301 302 303 304 305 307 308 307 307 307 304 302 302 302 304
297 298 298 298 298 299 300 301 302 303 303 305 308 308 307 306 308 305 303 302 303 302
297 298 298 298 298 299 300 300 302 303 303 304 305 307 307 306 308 306 303 303 303 302
297 297 297 297 298 299 299 300 301 302 304 304 305 307 308 306 307 308 304 303 303 303
296 297 297 297 298 298 299 299 300 302 303 303 305 308 308 307 307 308 306 304 304 303
296 297 297 297 298 298 298 298 299 300 302 303 305 308 307 306 306 307 308 307 305 303
296 296 296 297 297 297 297 298 299 299 301 302 305 306 306 305 305 306 307 307 307 305
295 296 296 296 296 296 296 297 298 298 299 301 303 299 299 301 303 305 306 305 304 302
294 294 294 295 295 295 295 296 297 297 298 299 301 297 297 297 302 303 305 304 301 299
293 293 292 293 295 294 295 296 296 296 297 298 299 295 296 294 302 302 302 302 300 297
293 292 292 293 293 293 293 294 295 295 296 296 297 292 296 297 302 299 300 300 300 299
293 293 293 293 292 291 293 293 292 293 296 292 296 292 294 298 299 299 297 298 298 289
293 293 294 293 289 291 290 290 290 290 291 292 294 294 294 296 298 298 293 292 289 291
Wind_Speed
8 6 5 6 5 4 4 4 5 4 4 3 2 2 3 2 3 3 4 6 5 5
7 7 6 7 5 4 4 3 5 5 5 3 2 3 4 2 4 3 3 5 5 5
8 7 6 6 6 7 6 5 5 5 5 4 3 3 4 1 4 5 3 3 7 5
7 7 7 6 6 6 6 6 6 5 5 5 5 3 3 3 3 5 4 4 6 7
9 8 8 7 7 7 7 6 7 6 5 5 5 5 5 5 4 5 5 5 6 6
9 9 8 7 7 7 7 7 6 6 6 5 5 4 4 4 4 5 5 5 6 6
11 10 9 8 9 9 7 7 7 6 6 6 5 5 5 5 4 4 4 6 6 6
9 8 8 8 8 7 7 7 6 6 6 6 5 4 5 5 5 5 5 5 5 5
8 8 8 7 7 7 7 7 6 6 6 6 4 9 10 8 5 5 5 5 5 5
9 9 8 7 7 7 7 6 7 6 6 6 5 7 9 10 5 5 4 5 5 4
10 9 8 8 9 7 6 7 6 7 7 6 5 10 9 10 6 6 6 5 5 6
11 10 10 11 9 6 6 5 5 4 6 6 5 11 11 8 5 5 6 5 6 6
12 12 13 11 9 5 5 6 5 6 6 6 5 9 11 7 4 5 4 5 5 7
12 13 13 11 6 8 7 7 7 7 6 7 6 7 11 8 5 4 2 3 3 4
Wind_Direction
158 163 166 161 156 160 173 175 170 165 172 195 214 123 95 71 51 49 93 91 72 90
157 156 164 159 151 155 164 171 170 167 167 187 190 128 102 52 76 72 56 96 80 90
167 158 153 148 160 163 166 168 166 167 164 176 167 150 124 117 97 100 89 99 107 88
157 158 151 159 162 165 157 167 170 170 163 177 164 176 147 146 120 112 111 104 113 109
158 158 162 163 164 161 169 169 168 170 164 170 173 181 167 163 159 130 134 134 117 121
162 162 169 163 161 164 161 171 169 169 169 177 181 161 170 154 162 133 147 152 140 141
168 171 170 165 165 166 168 166 173 177 171 179 182 156 161 152 163 154 156 155 154 154
170 164 157 164 168 163 164 171 167 162 176 183 182 160 154 156 173 167 165 162 154 160
157 160 169 165 163 161 164 165 164 174 177 182 186 168 155 152 173 177 169 170 148 140
159 165 169 156 151 163 173 161 172 176 171 184 186 170 163 158 164 171 177 166 161 145
164 167 153 158 171 165 164 176 173 175 181 180 190 185 180 169 165 166 177 169 169 168
170 166 168 177 173 167 155 164 172 168 168 178 193 188 184 165 162 168 173 174 172 173
172 173 175 176 171 150 158 164 152 173 180 183 183 193 186 180 152 174 180 172 182 189
177 177 178 170 154 155 151 146 167 178 183 181 178 189 194 188 163 179 166 184 192 192